Notices

What's New in latest Release from April 7th, 2021:

- Updated Glossary, including Speed of Maximum Gust, and Total Hourly Precipitation

- Updated national and regional climate services offices contacts and prices information

- Addition of station inventory lists for 1981-2010, 1971-2000, and 1961-1990 Normals.

If you haven't already, please take our survey and provide feedback about our website: https://eccc.sondage-survey.ca/f/LanguageSelection.aspx?s=442ca660-fcf1-47c0-95a9-59707d6fd709

Hourly Data Report for October 06, 2003

TORONTO CITY
ONTARIO

43°40'00.000" N
79°24'00.000" W
112.50 m
6158355
71508
XTO

Download Data

Hourly Data (October 2003)
Hourly Data Report for October 6, 2003
TIME
LST
Temp Definition
°C
Dew Point Definition
°C
Rel Hum Definition
%
Precip. Amount Definition
mm

Wind Dir Definition
10's deg

Wind Spd Definition
km/h
Visibility Definition
km
Stn Press Definition
kPa
Hmdx Definition


Wind Chill Definition


Weather Definition


00:00 4.4 1.8 83   LegendMM LegendMM LegendMM 100.42     LegendNANA
01:00 4.0 2.0 87   LegendMM LegendMM LegendMM 100.43     LegendNANA
02:00 3.3 1.5 88   LegendMM LegendMM LegendMM 100.46     LegendNANA
03:00 3.9 1.7 86   LegendMM LegendMM LegendMM 100.48     LegendNANA
04:00 2.5 0.6 87   LegendMM LegendMM LegendMM 100.53     LegendNANA
05:00 3.0 1.2 88   LegendMM LegendMM LegendMM 100.58     LegendNANA
06:00 3.3 1.8 90   LegendMM LegendMM LegendMM 100.62     LegendNANA
07:00 3.7 1.8 87   LegendMM LegendMM LegendMM 100.67     LegendNANA
08:00 6.1 3.1 81   LegendMM LegendMM LegendMM 100.72     LegendNANA
09:00 7.8 3.8 76   LegendMM LegendMM LegendMM 100.74     LegendNANA
10:00 9.9 3.4 64   LegendMM LegendMM LegendMM 100.76     LegendNANA
11:00 11.4 4.2 61   LegendMM LegendMM LegendMM 100.74     LegendNANA
12:00 11.0 3.6 60   LegendMM LegendMM LegendMM 100.73     LegendNANA
13:00 10.9 2.9 58   LegendMM LegendMM LegendMM 100.66     LegendNANA
14:00 9.7 3.3 64   LegendMM LegendMM LegendMM 100.61     LegendNANA
15:00 10.4 3.0 60   LegendMM LegendMM LegendMM 100.59     LegendNANA
16:00 9.7 2.6 61   LegendMM LegendMM LegendMM 100.55     LegendNANA
17:00 9.4 1.7 59   LegendMM LegendMM LegendMM 100.55     LegendNANA
18:00 8.4 1.4 61   LegendMM LegendMM LegendMM 100.54     LegendNANA
19:00 8.1 2.0 65   LegendMM LegendMM LegendMM 100.58     LegendNANA
20:00 7.8 2.5 69   LegendMM LegendMM LegendMM 100.57     LegendNANA
21:00 8.0 3.2 72   LegendMM LegendMM LegendMM 100.57     LegendNANA
22:00 7.3 3.4 76   LegendMM LegendMM LegendMM 100.58     LegendNANA
23:00 6.1 3.2 82   LegendMM LegendMM LegendMM 100.57     LegendNANA

Notes on Data Quality.

Legend

  • E = Estimated
  • M = Missing
  • NA = Not Available*
  • [empty] = Indicates an unobserved value
Date modified: